Weather History for KBEH - January, 2013

Change the Weather History Date:

Wednesday, January 16, 2013

  Actual Average Record
Temperature  
Mean Temperature 26 °F -  
Max Temperature 37 °F 30 °F 60 °F (1949)
Min Temperature 16 °F 16 °F -16 °F (1972)
Degree Days  
Heating Degree Days 39    
Moisture  
Dew Point 21 °F    
Average Humidity 75    
Maximum Humidity 88    
Minimum Humidity 52    
Precipitation  
Precipitation 0.00 in - - ()
Sea Level Pressure  
Sea Level Pressure 29.99 in    
Wind  
Wind Speed 9 mph (SW)    
Max Wind Speed 25 mph    
Max Gust Speed 33 mph    
Visibility 8 miles    
Events      
Averages and records for this station are not official NWS values.
T = Trace of Precipitation, MM = Missing Value Source: NWS Daily Summary

Daily Weather History Graph

Daily Weather History Graph

Search for Another Location

Airport or City:

Trip Planner

Search our weather history database for the weather conditions in past years. The results will help you decide how hot, cold, wet, or windy it might be!

Date:

Astronomy

Jan. 16, 2013 Rise Set
Actual Time 8:11 AM EST 5:40 PM EST
Civil Twilight 7:40 AM EST 6:11 PM EST
Nautical Twilight 7:05 AM EST 6:45 PM EST
Astronomical Twilight 6:32 AM EST 7:19 PM EST
Moon 10:40 AM EST (1/16) 11:38 PM EST (1/16)
Length of Visible Light 10h 31m
Length of Day
9h 29m
Waxing Crescent, 28% of the Moon is Illuminated
Jan 16
Waxing Crescent
Jan 18
First Quarter
Jan 26
Full
Feb 3
Last Quarter
Feb 10
New

Hourly Weather History & Observations

Time (EST) Temp. Windchill Dew Point Humidity Pressure Visibility Wind Dir Wind Speed Gust Speed Precip Events Conditions
1:53 AM 19.9 °F 14.9 °F 16.0 °F 85% 30.11 in 8.0 mi SSE 3.5 mph - N/A   Clear
2:53 AM 17.1 °F - 14.0 °F 88% 30.11 in 5.0 mi Calm Calm - N/A   Partly Cloudy
3:53 AM 16.0 °F 8.8 °F 12.9 °F 88% 30.10 in 5.0 mi SSE 4.6 mph - N/A   Clear
4:53 AM 21.0 °F 13.4 °F 17.1 °F 85% 30.07 in 6.0 mi South 5.8 mph - N/A   Overcast
5:53 AM 21.0 °F 13.4 °F 17.1 °F 85% 30.04 in 7.0 mi South 5.8 mph - N/A   Clear
6:53 AM 21.0 °F 13.4 °F 17.1 °F 85% 30.01 in 6.0 mi South 5.8 mph - N/A   Clear
7:53 AM 21.9 °F 15.7 °F 18.0 °F 85% 30.00 in 6.0 mi SSW 4.6 mph - N/A   Clear
8:53 AM 23.0 °F 13.9 °F 19.0 °F 85% 30.00 in 5.0 mi SSW 8.1 mph - N/A   Clear
9:53 AM 26.1 °F 17.6 °F 21.0 °F 81% 30.01 in 7.0 mi SSW 8.1 mph - N/A   Partly Cloudy
10:53 AM 30.0 °F 18.7 °F 21.9 °F 72% 29.96 in 10.0 mi SSW 16.1 mph 23.0 mph N/A   Clear
11:53 AM 30.9 °F 19.4 °F 19.0 °F 61% 29.95 in 10.0 mi SW 17.3 mph 24.2 mph N/A   Clear
12:53 PM 33.1 °F 21.9 °F 17.1 °F 52% 29.91 in 10.0 mi SW 18.4 mph 25.3 mph N/A   Clear
3:53 PM 35.1 °F 25.5 °F 19.9 °F 54% 29.86 in 10.0 mi SW 15.0 mph 27.6 mph N/A   Overcast
4:53 PM 35.1 °F 23.8 °F 23.0 °F 61% 29.88 in 10.0 mi WSW 20.7 mph 31.1 mph N/A   Overcast
5:53 PM 35.1 °F 24.8 °F 25.0 °F 67% 29.91 in 10.0 mi WSW 17.3 mph 28.8 mph N/A   Overcast
6:53 PM 36.0 °F 23.9 °F 26.1 °F 67% 29.93 in 10.0 mi West 25.3 mph 33.4 mph N/A   Overcast
7:53 PM 35.1 °F 23.5 °F 27.0 °F 72% 29.96 in 10.0 mi West 21.9 mph - N/A   Overcast
8:53 PM 36.0 °F 26.0 °F 27.0 °F 70% 29.98 in 10.0 mi West 17.3 mph 29.9 mph N/A   Overcast
9:53 PM 36.0 °F 26.3 °F 28.0 °F 73% 29.99 in 10.0 mi West 16.1 mph 24.2 mph N/A   Overcast
10:53 PM 36.0 °F 27.1 °F 28.9 °F 76% 30.01 in 10.0 mi West 13.8 mph 23.0 mph N/A   Overcast
11:53 PM 37.0 °F 30.4 °F 28.9 °F 73% 30.02 in 10.0 mi WNW 9.2 mph 19.6 mph N/A   Overcast